Hourly Weather Kyrdzhali

Today, 14 August, Friday

Time Temperature Precipitation Wind Pressure Humidity
00:00 +21°C° 0 mm 1 mps 727 mmHg 74%
01:00 +21°C° 0 mm 1 mps 727 mmHg 77%
02:00 +20°C° 0 mm 1 mps 727 mmHg 80%
03:00 +20°C° 0 mm 1 mps 727 mmHg 82%
04:00 +20°C° 0 mm 1 mps 727 mmHg 83%
05:00 +19°C° 0 mm 1 mps 727 mmHg 85%
06:00 +19°C° 0 mm 0 mps 727 mmHg 76%
07:00 +21°C° 0 mm 0 mps 727 mmHg 67%
08:00 +23°C° 0 mm 0 mps 727 mmHg 59%
09:00 +27°C° 0 mm 1 mps 727 mmHg 52%
10:00 +29°C° 0 mm 1 mps 727 mmHg 45%
11:00 +31°C° 0 mm 1 mps 727 mmHg 38%
12:00 +32°C° 0 mm 1 mps 727 mmHg 36%
13:00 +32°C° 0 mm 1 mps 727 mmHg 33%
14:00 +34°C° 0 mm 2 mps 727 mmHg 31%
15:00 +34°C° 0 mm 2 mps 726 mmHg 30%
16:00 +34°C° 0 mm 2 mps 726 mmHg 29%
17:00 +34°C° 0 mm 2 mps 726 mmHg 28%
18:00 +30°C° 0 mm 1 mps 725 mmHg 36%
19:00 +27°C° 0 mm 1 mps 725 mmHg 44%
20:00 +25°C° 0 mm 1 mps 725 mmHg 52%
21:00 +24°C° 0 mm 1 mps 725 mmHg 56%
22:00 +23°C° 0 mm 2 mps 725 mmHg 59%
23:00 +21°C° 0 mm 2 mps 726 mmHg 63%

Tomorrow, 15 August, Saturday

Time Temperature Precipitation Wind Pressure Humidity
00:00 +21°C° 0 mm 2 mps 726 mmHg 64%
01:00 +21°C° 0 mm 1 mps 726 mmHg 65%
02:00 +21°C° 0 mm 1 mps 726 mmHg 66%
03:00 +20°C° 0 mm 1 mps 725 mmHg 66%
04:00 +20°C° 0 mm 1 mps 725 mmHg 67%
05:00 +19°C° 0 mm 1 mps 725 mmHg 67%
06:00 +21°C° 0 mm 1 mps 725 mmHg 61%
07:00 +23°C° 0 mm 1 mps 726 mmHg 54%
08:00 +25°C° 0 mm 1 mps 726 mmHg 48%
09:00 +27°C° 0 mm 1 mps 726 mmHg 43%
10:00 +29°C° 0 mm 2 mps 726 mmHg 38%
11:00 +31°C° 0 mm 2 mps 726 mmHg 34%
12:00 +31°C° 0 mm 2 mps 726 mmHg 33%
13:00 +32°C° 0 mm 2 mps 726 mmHg 31%
14:00 +34°C° 0 mm 2 mps 726 mmHg 30%
15:00 +33°C° 0 mm 3 mps 725 mmHg 32%
16:00 +33°C° 0 mm 3 mps 725 mmHg 33%
17:00 +31°C° 0 mm 3 mps 724 mmHg 35%
18:00 +29°C° 0 mm 3 mps 724 mmHg 39%
19:00 +27°C° 0 mm 3 mps 725 mmHg 43%
20:00 +25°C° 0 mm 3 mps 725 mmHg 48%
21:00 +24°C° 0 mm 2 mps 725 mmHg 52%
22:00 +22°C° 0 mm 1 mps 725 mmHg 57%
23:00 +21°C° 0 mm 1 mps 725 mmHg 61%

Day after tomorrow, 16 August, Sunday

Time Temperature Precipitation Wind Pressure Humidity
00:00 +20°C° 0 mm 1 mps 725 mmHg 66%
01:00 +19°C° 0 mm 1 mps 724 mmHg 70%
02:00 +19°C° 0 mm 1 mps 724 mmHg 75%
03:00 +19°C° 0 mm 1 mps 724 mmHg 76%
04:00 +19°C° 0 mm 1 mps 724 mmHg 77%
05:00 +19°C° 0 mm 1 mps 724 mmHg 78%
06:00 +18°C° 0 mm 2 mps 724 mmHg 75%
07:00 +19°C° 0 mm 2 mps 725 mmHg 71%
08:00 +20°C° 0 mm 2 mps 725 mmHg 67%
09:00 +23°C° 0 mm 2 mps 725 mmHg 61%
10:00 +24°C° 0 mm 3 mps 725 mmHg 55%
11:00 +25°C° 0 mm 3 mps 726 mmHg 49%
12:00 +26°C° 0 mm 3 mps 726 mmHg 46%
13:00 +27°C° 0 mm 3 mps 726 mmHg 42%
14:00 +28°C° 0 mm 3 mps 726 mmHg 39%
15:00 +29°C° 0 mm 3 mps 725 mmHg 39%
16:00 +29°C° 0 mm 3 mps 725 mmHg 39%
17:00 +29°C° 0 mm 4 mps 725 mmHg 38%
18:00 +27°C° 0 mm 3 mps 725 mmHg 42%
19:00 +26°C° 0 mm 3 mps 726 mmHg 45%
20:00 +24°C° 0 mm 3 mps 726 mmHg 48%
21:00 +21°C° 0 mm 2 mps 726 mmHg 53%
22:00 +20°C° 0 mm 2 mps 726 mmHg 57%
23:00 +19°C° 0 mm 1 mps 726 mmHg 61%

17 August, Monday

Time Temperature Precipitation Wind Pressure Humidity
00:00 +19°C° 0 mm 1 mps 726 mmHg 65%
01:00 +18°C° 0 mm 1 mps 726 mmHg 70%
02:00 +18°C° 0 mm 1 mps 726 mmHg 74%
03:00 +16°C° 0 mm 1 mps 726 mmHg 78%
04:00 +16°C° 0 mm 1 mps 726 mmHg 82%
05:00 +16°C° 0 mm 1 mps 726 mmHg 86%
06:00 +17°C° 0 mm 2 mps 726 mmHg 79%
07:00 +19°C° 0 mm 2 mps 726 mmHg 73%
08:00 +21°C° 0 mm 2 mps 727 mmHg 66%
09:00 +22°C° 0 mm 3 mps 727 mmHg 58%
10:00 +25°C° 0 mm 3 mps 727 mmHg 49%
11:00 +27°C° 0 mm 4 mps 727 mmHg 40%
12:00 +28°C° 0 mm 4 mps 727 mmHg 36%
13:00 +30°C° 0 mm 4 mps 726 mmHg 32%
14:00 +32°C° 0 mm 4 mps 726 mmHg 27%
15:00 +32°C° 0 mm 4 mps 726 mmHg 26%
16:00 +31°C° 0 mm 3 mps 726 mmHg 25%
17:00 +31°C° 0 mm 3 mps 725 mmHg 23%
18:00 +28°C° 0 mm 3 mps 725 mmHg 29%
19:00 +26°C° 0 mm 3 mps 725 mmHg 34%
20:00 +22°C° 0 mm 3 mps 725 mmHg 39%
21:00 +21°C° 0 mm 2 mps 725 mmHg 46%
22:00 +20°C° 0 mm 1 mps 725 mmHg 53%
23:00 +19°C° 0 mm 1 mps 725 mmHg 60%

18 August, Tuesday

Time Temperature Precipitation Wind Pressure Humidity
00:00 +18°C° 0 mm 1 mps 725 mmHg 64%
01:00 +18°C° 0 mm 1 mps 725 mmHg 68%
02:00 +18°C° 0 mm 1 mps 725 mmHg 73%
03:00 +16°C° 0 mm 1 mps 725 mmHg 74%
04:00 +16°C° 0 mm 1 mps 725 mmHg 76%
05:00 +16°C° 0 mm 1 mps 724 mmHg 78%
06:00 +19°C° 0 mm 1 mps 725 mmHg 70%
07:00 +21°C° 0 mm 1 mps 725 mmHg 62%
08:00 +23°C° 0 mm 1 mps 725 mmHg 54%
09:00 +25°C° 0 mm 1 mps 725 mmHg 47%
10:00 +27°C° 0 mm 2 mps 725 mmHg 40%
11:00 +30°C° 0 mm 2 mps 725 mmHg 33%
12:00 +31°C° 0 mm 2 mps 725 mmHg 31%
13:00 +32°C° 0 mm 2 mps 725 mmHg 28%
14:00 +34°C° 0 mm 2 mps 724 mmHg 26%
15:00 +34°C° 0 mm 2 mps 724 mmHg 26%
16:00 +34°C° 0 mm 2 mps 724 mmHg 27%
17:00 +34°C° 0 mm 2 mps 723 mmHg 27%
18:00 +30°C° 0 mm 1 mps 723 mmHg 32%
19:00 +28°C° 0 mm 1 mps 723 mmHg 37%
20:00 +25°C° 0 mm 1 mps 723 mmHg 42%
21:00 +24°C° 0 mm 1 mps 723 mmHg 47%
22:00 +23°C° 0 mm 1 mps 723 mmHg 51%
23:00 +22°C° 0 mm 1 mps 723 mmHg 55%

19 August, Wednesday

Time Temperature Precipitation Wind Pressure Humidity
00:00 +21°C° 0 mm 1 mps 723 mmHg 59%
01:00 +21°C° 0 mm 1 mps 723 mmHg 63%
02:00 +20°C° 0 mm 1 mps 723 mmHg 67%
03:00 +20°C° 0 mm 1 mps 722 mmHg 68%
04:00 +20°C° 0 mm 1 mps 722 mmHg 68%
05:00 +19°C° 0 mm 1 mps 722 mmHg 69%
06:00 +21°C° 0 mm 1 mps 722 mmHg 62%
07:00 +23°C° 0 mm 1 mps 722 mmHg 55%
08:00 +26°C° 0 mm 1 mps 723 mmHg 48%
09:00 +28°C° 0 mm 1 mps 723 mmHg 43%
10:00 +30°C° 0 mm 2 mps 723 mmHg 37%
11:00 +32°C° 0 mm 2 mps 723 mmHg 32%
12:00 +34°C° 0 mm 2 mps 723 mmHg 30%
13:00 +34°C° 0 mm 2 mps 723 mmHg 29%
14:00 +35°C° 0 mm 2 mps 722 mmHg 27%
15:00 +34°C° 0 mm 3 mps 722 mmHg 32%
16:00 +31°C° 0 mm 3 mps 722 mmHg 36%
17:00 +30°C° 0 mm 4 mps 721 mmHg 40%
18:00 +27°C° 0.3 mm 4 mps 721 mmHg 55%
19:00 +25°C° 0.3 mm 3 mps 721 mmHg 69%
20:00 +21°C° 0.3 mm 3 mps 721 mmHg 83%
21:00 +21°C° 0.8 mm 2 mps 722 mmHg 86%
22:00 +20°C° 0.8 mm 2 mps 722 mmHg 89%
23:00 +20°C° 0.8 mm 2 mps 722 mmHg 91%
Show more